Tracking 28126 objects as of 2-Oct-2023
HD Live streaming from Space Station
objects crossing your sky now

SPACEBEE-167

Track SPACEBEE-167 now!
10-day predictions


NORAD ID: 55087
Int'l Code: 2023-001CG
Perigee: 494.1 km
Apogee: 511.5 km
Inclination: 97.5 °
Period: 94.5 minutes
Semi major axis: 6873 km
RCS: Unknown
Launch date: January 3, 2023
Source: United States (US)
Launch site: AIR FORCE EASTERN TEST RANGE (AFETR)
Your satellite tracking list
Your tracking list is empty




NASA's NSSDC Master Catalog

Two Line Element Set (TLE):
1 55087U 23001CG  23274.72777092  .00027846  00000-0  11681-2 0  9996
2 55087  97.4644 333.9299 0012707 356.9237   3.1919 15.23380461 41293
Source of the keplerian elements: AFSPC